User: anonymous   Login
Location: Lucerne Valley
(34.4439°N, 116.9669°E)
Time: 06:52:12
(UTC-07:00)
Language:

Envisat - Orbit

View from above orbital plane
View from above orbital plane
View from above satellite
View from above satellite

Ground track
Ground track

The orbit data is extracted from the following two-line orbital elements,

1 27386U 02009A   18169.14218424 -.00000021  00000-0  64966-5 0  9998
2 27386  98.1839 203.1583 0001230  93.1803 334.0451 14.37924061853663
Epoch (UTC): 18 June 2018 03:24:44
Eccentricity: 0.0001230
inclination: 98.1839°
perigee height: 764 km
apogee height: 766 km
right ascension of ascending node: 203.1583°
argument of perigee: 93.1803°
revolutions per day: 14.37924061
mean anomaly at epoch: 334.0451°
orbit number at epoch: 85366

The dashed part of the orbit path shows where the satellite is in the earth's shadow,  

DLR